^^
No Wait Weather (KNEBELLE1) Station Historical Data
Daily Summary for May 5, 2019 Units:  English    Metric   Both
Daily Weekly Monthly Yearly Custom
  High: Low: Average:
Temperature: 81.6 °F 54.7 °F 65.6 °F
Dew Point: 56.28 °F 39.44 °F 50.1 °F
Humidity: 94% 24% 63%
Wind Speed: 7mph 0mph 0.3mph
Wind Gust: 14mph - -
Wind- - SSW
Pressure: 29.72 in 29.51 in -
Precipitation: 0 in    
Historical Graphs
 
 
Tabular Data for May 5, 2019
Time Temperature Dew Point Pressure Wind Wind Speed Wind Gust Humidity Rainfall Rate (Hourly) solar
00:04 58 °F 55.38 °F 29.69 in Calm     91% 0 in WeatherCatV3.04B91 W/m2
00:09 58 °F 55.69 °F 29.69 in Calm     92% 0 in WeatherCatV3.04B91 W/m2
00:13 58 °F 55.69 °F 29.69 in Calm     92% 0 in WeatherCatV3.04B91 W/m2
00:19 58 °F 55.69 °F 29.69 in Calm     92% 0 in WeatherCatV3.04B91 W/m2
00:24 58 °F 55.69 °F 29.69 in Calm     92% 0 in WeatherCatV3.04B91 W/m2
00:29 58 °F 55.69 °F 29.70 in Calm     92% 0 in WeatherCatV3.04B91 W/m2
00:34 58 °F 55.98 °F 29.70 in Calm     93% 0 in WeatherCatV3.04B91 W/m2
00:39 57.8 °F 55.79 °F 29.70 in Calm     93% 0 in WeatherCatV3.04B91 W/m2
00:43 57.8 °F 55.79 °F 29.70 in Calm     93% 0 in WeatherCatV3.04B91 W/m2
00:49 57.8 °F 55.79 °F 29.72 in Calm     93% 0 in WeatherCatV3.04B91 W/m2
00:54 57.8 °F 55.79 °F 29.72 in Calm     93% 0 in WeatherCatV3.04B91 W/m2
00:59 57.8 °F 55.79 °F 29.67 in Calm     93% 0 in WeatherCatV3.04B91 W/m2
01:04 57.8 °F 56.08 °F 29.67 in SSW 1 mph 2 mph 94% 0 in WeatherCatV3.04B91 W/m2
01:09 57.6 °F 55.59 °F 29.67 in Calm     93% 0 in WeatherCatV3.04B91 W/m2
01:14 57.6 °F 55.59 °F 29.67 in SW 1 mph 1 mph 93% 0 in WeatherCatV3.04B91 W/m2
01:19 57.5 °F 55.49 °F 29.67 in Calm   3 mph 93% 0 in WeatherCatV3.04B91 W/m2
01:24 57.5 °F 55.49 °F 29.67 in Calm   2 mph 93% 0 in WeatherCatV3.04B91 W/m2
01:29 57.5 °F 55.49 °F 29.68 in Calm     93% 0 in WeatherCatV3.04B91 W/m2
01:34 57.5 °F 55.49 °F 29.68 in Calm     93% 0 in WeatherCatV3.04B91 W/m2
01:39 57.5 °F 55.19 °F 29.68 in Calm     92% 0 in WeatherCatV3.04B91 W/m2
01:44 57.5 °F 55.19 °F 29.67 in Calm     92% 0 in WeatherCatV3.04B91 W/m2
01:49 57.3 °F 54.99 °F 29.67 in Calm     92% 0 in WeatherCatV3.04B91 W/m2
01:54 57.3 °F 54.99 °F 29.67 in Calm     92% 0 in WeatherCatV3.04B91 W/m2
01:59 57.3 °F 54.99 °F 29.68 in Calm     92% 0 in WeatherCatV3.04B91 W/m2
02:04 57.3 °F 54.99 °F 29.68 in Calm     92% 0 in WeatherCatV3.04B91 W/m2
02:09 57.3 °F 54.69 °F 29.68 in Calm     91% 0 in WeatherCatV3.04B91 W/m2
02:13 57.3 °F 54.69 °F 29.68 in Calm     91% 0 in WeatherCatV3.04B91 W/m2
02:19 57.3 °F 54.69 °F 29.68 in Calm     91% 0 in WeatherCatV3.04B91 W/m2
02:24 57.3 °F 54.39 °F 29.68 in Calm     90% 0 in WeatherCatV3.04B91 W/m2
02:29 57.3 °F 54.39 °F 29.68 in Calm     90% 0 in WeatherCatV3.04B91 W/m2
02:34 57.2 °F 54.29 °F 29.68 in Calm     90% 0 in WeatherCatV3.04B91 W/m2
02:39 57.2 °F 54.29 °F 29.68 in Calm     90% 0 in WeatherCatV3.04B91 W/m2
02:44 57 °F 54.09 °F 29.67 in Calm   2 mph 90% 0 in WeatherCatV3.04B91 W/m2
02:49 57 °F 53.79 °F 29.67 in Calm     89% 0 in WeatherCatV3.04B91 W/m2
02:54 56.9 °F 53.69 °F 29.67 in Calm     89% 0 in WeatherCatV3.04B91 W/m2
02:59 56.9 °F 53.69 °F 29.67 in Calm     89% 0 in WeatherCatV3.04B91 W/m2
03:04 56.9 °F 53.69 °F 29.67 in Calm     89% 0 in WeatherCatV3.04B91 W/m2
03:09 56.7 °F 53.49 °F 29.67 in Calm     89% 0 in WeatherCatV3.04B91 W/m2
03:14 56.7 °F 53.49 °F 29.66 in Calm     89% 0 in WeatherCatV3.04B91 W/m2
03:19 56.6 °F 53.39 °F 29.66 in Calm     89% 0 in WeatherCatV3.04B91 W/m2
03:24 56.5 °F 53.29 °F 29.66 in Calm     89% 0 in WeatherCatV3.04B91 W/m2
03:29 56.5 °F 53.29 °F 29.66 in Calm     89% 0 in WeatherCatV3.04B91 W/m2
03:34 56.5 °F 53.29 °F 29.66 in Calm     89% 0 in WeatherCatV3.04B91 W/m2
03:39 56.5 °F 53.29 °F 29.66 in Calm     89% 0 in WeatherCatV3.04B91 W/m2
03:44 56.3 °F 53.1 °F 29.67 in Calm   1 mph 89% 0 in WeatherCatV3.04B91 W/m2
03:49 56.5 °F 52.99 °F 29.67 in Calm     88% 0 in WeatherCatV3.04B91 W/m2
03:54 56.5 °F 52.99 °F 29.67 in Calm     88% 0 in WeatherCatV3.04B91 W/m2
03:59 56.5 °F 52.99 °F 29.66 in Calm     88% 0 in WeatherCatV3.04B91 W/m2
04:04 56.3 °F 52.79 °F 29.66 in Calm     88% 0 in WeatherCatV3.04B91 W/m2
04:09 56.3 °F 52.79 °F 29.66 in Calm     88% 0 in WeatherCatV3.04B91 W/m2
04:14 56.2 °F 52.69 °F 29.66 in Calm     88% 0 in WeatherCatV3.04B91 W/m2
04:19 56 °F 52.49 °F 29.66 in Calm     88% 0 in WeatherCatV3.04B91 W/m2
04:24 55.9 °F 52.4 °F 29.66 in Calm     88% 0 in WeatherCatV3.04B91 W/m2
04:29 55.9 °F 52.09 °F 29.66 in Calm     87% 0 in WeatherCatV3.04B91 W/m2
04:34 55.7 °F 52.2 °F 29.66 in Calm     88% 0 in WeatherCatV3.04B91 W/m2
04:39 55.6 °F 52.1 °F 29.66 in Calm     88% 0 in WeatherCatV3.04B91 W/m2
04:44 55.4 °F 51.9 °F 29.66 in Calm   1 mph 88% 0 in WeatherCatV3.04B91 W/m2
04:49 55.4 °F 51.9 °F 29.66 in Calm     88% 0 in WeatherCatV3.04B91 W/m2
04:54 55.4 °F 51.9 °F 29.66 in Calm     88% 0 in WeatherCatV3.04B91 W/m2
04:59 55.3 °F 51.8 °F 29.65 in Calm     88% 0 in WeatherCatV3.04B91 W/m2
05:04 55.1 °F 51.61 °F 29.65 in Calm     88% 0 in WeatherCatV3.04B91 W/m2
05:09 55.1 °F 51.61 °F 29.65 in Calm     88% 0 in WeatherCatV3.04B91 W/m2
05:14 55 °F 51.51 °F 29.66 in Calm     88% 0 in WeatherCatV3.04B91 W/m2
05:19 55 °F 51.82 °F 29.66 in Calm     89% 0 in WeatherCatV3.04B91 W/m2
05:24 55 °F 51.82 °F 29.66 in Calm     89% 0 in WeatherCatV3.04B91 W/m2
05:29 55 °F 51.82 °F 29.66 in Calm     89% 0 in WeatherCatV3.04B91 W/m2
05:34 55.3 °F 52.11 °F 29.66 in Calm     89% 0 in WeatherCatV3.04B91 W/m2
05:39 55.4 °F 51.9 °F 29.66 in Calm   2 mph 88% 0 in WeatherCatV3.04B91 W/m2
05:44 55.6 °F 52.1 °F 29.66 in Calm   1 mph 88% 0 in WeatherCatV3.04B91 W/m2
05:49 55.7 °F 51.89 °F 29.66 in Calm     87% 0 in WeatherCatV3.04B91 W/m2
05:54 55.7 °F 51.89 °F 29.66 in Calm     87% 0 in WeatherCatV3.04B91 W/m2
05:59 55.7 °F 51.57 °F 29.66 in Calm     86% 0 in WeatherCatV3.04B91 W/m2
06:04 55.7 °F 51.57 °F 29.66 in Calm     86% 0 in WeatherCatV3.04B91 W/m2
06:09 55.6 °F 51.48 °F 29.66 in SSW 1 mph 1 mph 86% 0 in WeatherCatV3.04B91 W/m2
06:14 55.6 °F 51.48 °F 29.66 in Calm     86% 0 in WeatherCatV3.04B91 W/m2
06:19 55.4 °F 51.28 °F 29.66 in Calm     86% 0 in WeatherCatV3.04B91 W/m2
06:24 55.4 °F 51.28 °F 29.66 in Calm     86% 0 in WeatherCatV3.04B91 W/m2
06:29 55.3 °F 51.18 °F 29.68 in Calm     86% 0 in WeatherCatV3.04B91 W/m2
06:34 55.3 °F 51.18 °F 29.68 in Calm     86% 0 in WeatherCatV3.04B91 W/m2
06:39 55.1 °F 50.99 °F 29.68 in Calm     86% 0 in WeatherCatV3.04B91 W/m2
06:43 55.1 °F 50.99 °F 29.68 in Calm     86% 0 in WeatherCatV3.04B91 W/m2
06:49 55 °F 50.89 °F 29.68 in Calm     86% 0 in WeatherCatV3.04B91 W/m2
06:54 54.8 °F 51 °F 29.68 in Calm     87% 0 in WeatherCatV3.04B91 W/m2
06:59 54.8 °F 51 °F 29.68 in Calm     87% 0 in WeatherCatV3.04B91 W/m2
07:04 54.7 °F 50.91 °F 29.68 in Calm     87% 0 in WeatherCatV3.04B91 W/m2
07:09 54.8 °F 51.31 °F 29.68 in Calm     88% 0 in WeatherCatV3.04B91 W/m2
07:14 55.1 °F 51.61 °F 29.68 in Calm     88% 0 in WeatherCatV3.04B91 W/m2
07:19 55.4 °F 51.9 °F 29.68 in Calm     88% 0 in WeatherCatV3.04B91 W/m2
07:24 55.7 °F 52.2 °F 29.68 in Calm     88% 0 in WeatherCatV3.04B91 W/m2
07:29 56.2 °F 52.69 °F 29.69 in Calm     88% 0 in WeatherCatV3.04B91 W/m2
07:34 56.6 °F 53.08 °F 29.69 in Calm     88% 0 in WeatherCatV3.04B91 W/m2
07:39 56.9 °F 53.07 °F 29.69 in Calm     87% 0 in WeatherCatV3.04B91 W/m2
07:44 57 °F 52.85 °F 29.69 in Calm     86% 0 in WeatherCatV3.04B91 W/m2
07:49 57.2 °F 52.73 °F 29.69 in Calm     85% 0 in WeatherCatV3.04B91 W/m2
07:54 57.3 °F 52.83 °F 29.69 in Calm     85% 0 in WeatherCatV3.04B91 W/m2
07:59 57.5 °F 53.02 °F 29.69 in Calm     85% 0 in WeatherCatV3.04B91 W/m2
08:03 57.6 °F 53.12 °F 29.69 in Calm     85% 0 in WeatherCatV3.04B91 W/m2
08:09 58 °F 53.19 °F 29.69 in Calm     84% 0 in WeatherCatV3.04B91 W/m2
08:14 58.1 °F 53.29 °F 29.69 in Calm     84% 0 in WeatherCatV3.04B91 W/m2
08:19 58.3 °F 53.48 °F 29.69 in Calm     84% 0 in WeatherCatV3.04B91 W/m2
08:24 58.4 °F 53.58 °F 29.69 in Calm     84% 0 in WeatherCatV3.04B91 W/m2
08:29 58.7 °F 53.88 °F 29.69 in Calm     84% 0 in WeatherCatV3.04B91 W/m2
08:34 59 °F 54.17 °F 29.69 in Calm     84% 0 in WeatherCatV3.04B91 W/m2
08:39 59.3 °F 54.13 °F 29.69 in Calm     83% 0 in WeatherCatV3.04B91 W/m2
08:44 59.8 °F 54.62 °F 29.69 in Calm     83% 0 in WeatherCatV3.04B91 W/m2
08:49 60.2 °F 55.01 °F 29.69 in Calm     83% 0 in WeatherCatV3.04B91 W/m2
08:54 60.9 °F 56.03 °F 29.69 in Calm     84% 0 in WeatherCatV3.04B91 W/m2
08:59 61.5 °F 56.28 °F 29.69 in Calm     83% 0 in WeatherCatV3.04B91 W/m2
09:04 62 °F 56.1 °F 29.69 in Calm     81% 0 in WeatherCatV3.04B91 W/m2
09:09 62.1 °F 55.85 °F 29.69 in Calm   1 mph 80% 0 in WeatherCatV3.04B91 W/m2
09:14 62.6 °F 55.99 °F 29.69 in Calm     79% 0 in WeatherCatV3.04B91 W/m2
09:19 63.1 °F 55.77 °F 29.69 in Calm     77% 0 in WeatherCatV3.04B91 W/m2
09:24 63.4 °F 55.7 °F 29.69 in Calm     76% 0 in WeatherCatV3.04B91 W/m2
09:29 63.9 °F 55.81 °F 29.68 in Calm     75% 0 in WeatherCatV3.04B91 W/m2
09:34 64.2 °F 55.73 °F 29.68 in Calm   5 mph 74% 0 in WeatherCatV3.04B91 W/m2
09:39 64.3 °F 54.69 °F 29.68 in Calm   9 mph 71% 0 in WeatherCatV3.04B91 W/m2
09:44 64.7 °F 54.68 °F 29.67 in Calm   6 mph 70% 0 in WeatherCatV3.04B91 W/m2
09:49 65 °F 54.97 °F 29.67 in Calm   5 mph 70% 0 in WeatherCatV3.04B91 W/m2
09:54 65.5 °F 55.45 °F 29.67 in Calm   4 mph 70% 0 in WeatherCatV3.04B91 W/m2
09:59 66 °F 55.53 °F 29.67 in Calm   3 mph 69% 0 in WeatherCatV3.04B91 W/m2
10:04 66.4 °F 55.51 °F 29.67 in Calm   4 mph 68% 0 in WeatherCatV3.04B91 W/m2
10:09 66.8 °F 55.48 °F 29.67 in SW 1 mph 1 mph 67% 0 in WeatherCatV3.04B91 W/m2
10:14 66.9 °F 55.58 °F 29.67 in Calm     67% 0 in WeatherCatV3.04B91 W/m2
10:19 66.9 °F 55.16 °F 29.67 in Calm   10 mph 66% 0 in WeatherCatV3.04B91 W/m2
10:24 67.1 °F 55.35 °F 29.67 in SW 1 mph 5 mph 66% 0 in WeatherCatV3.04B91 W/m2
10:29 67.4 °F 56.05 °F 29.67 in Calm   2 mph 67% 0 in WeatherCatV3.04B91 W/m2
10:34 67.6 °F 55.83 °F 29.67 in Calm   4 mph 66% 0 in WeatherCatV3.04B91 W/m2
10:39 67.8 °F 55.17 °F 29.67 in Calm   4 mph 64% 0 in WeatherCatV3.04B91 W/m2
10:44 68.1 °F 55.45 °F 29.66 in Calm   4 mph 64% 0 in WeatherCatV3.04B91 W/m2
10:49 68.1 °F 54.58 °F 29.66 in Calm     62% 0 in WeatherCatV3.04B91 W/m2
10:54 68.6 °F 55.49 °F 29.66 in Calm     63% 0 in WeatherCatV3.04B91 W/m2
10:59 68.9 °F 54.88 °F 29.66 in Calm   4 mph 61% 0 in WeatherCatV3.04B91 W/m2
11:04 69.3 °F 54.81 °F 29.66 in SSW 1 mph 4 mph 60% 0 in WeatherCatV3.04B91 W/m2
11:09 69.4 °F 54.44 °F 29.66 in Calm     59% 0 in WeatherCatV3.04B91 W/m2
11:14 69.6 °F 53.68 °F 29.65 in Calm     57% 0 in WeatherCatV3.04B91 W/m2
11:19 69.6 °F 51.18 °F 29.65 in South 1 mph 6 mph 52% 0 in WeatherCatV3.04B91 W/m2
11:24 69.8 °F 51.88 °F 29.65 in Calm   3 mph 53% 0 in WeatherCatV3.04B91 W/m2
11:29 69.9 °F 51.46 °F 29.65 in SW 3 mph 4 mph 52% 0 in WeatherCatV3.04B91 W/m2
11:34 70.4 °F 51.4 °F 29.65 in Calm   8 mph 51% 0 in WeatherCatV3.04B91 W/m2
11:39 70.8 °F 51.76 °F 29.65 in Calm   5 mph 51% 0 in WeatherCatV3.04B91 W/m2
11:44 70.9 °F 51.32 °F 29.64 in Calm   5 mph 50% 0 in WeatherCatV3.04B91 W/m2
11:49 71.3 °F 52.75 °F 29.64 in Calm   1 mph 52% 0 in WeatherCatV3.04B91 W/m2
11:54 71.8 °F 52.68 °F 29.64 in Calm     51% 0 in WeatherCatV3.04B91 W/m2
11:59 72 °F 51.22 °F 29.64 in Calm   4 mph 48% 0 in WeatherCatV3.04B91 W/m2
12:04 72.1 °F 51.87 °F 29.64 in Calm     49% 0 in WeatherCatV3.04B91 W/m2
12:09 72.5 °F 50.53 °F 29.64 in SSW 1 mph 7 mph 46% 0 in WeatherCatV3.04B91 W/m2
12:14 72.5 °F 50.53 °F 29.64 in Calm   1 mph 46% 0 in WeatherCatV3.04B91 W/m2
12:19 72.7 °F 48.9 °F 29.64 in SSW 1 mph 14 mph 43% 0 in WeatherCatV3.04B91 W/m2
12:24 72.8 °F 48.99 °F 29.64 in Calm   2 mph 43% 0 in WeatherCatV3.04B91 W/m2
12:29 73 °F 49.17 °F 29.64 in Calm   3 mph 43% 0 in WeatherCatV3.04B91 W/m2
12:34 73.2 °F 48.72 °F 29.64 in Calm   1 mph 42% 0 in WeatherCatV3.04B91 W/m2
12:39 73.9 °F 49.98 °F 29.64 in SW 2 mph 10 mph 43% 0 in WeatherCatV3.04B91 W/m2
12:44 74.2 °F 48.97 °F 29.63 in Calm   9 mph 41% 0 in WeatherCatV3.04B91 W/m2
12:49 74.6 °F 50.61 °F 29.63 in Calm   5 mph 43% 0 in WeatherCatV3.04B91 W/m2
12:54 74.9 °F 50.88 °F 29.63 in SW 1 mph 2 mph 43% 0 in WeatherCatV3.04B91 W/m2
12:59 75.3 °F 50.6 °F 29.62 in Calm     42% 0 in WeatherCatV3.04B91 W/m2
13:04 75.6 °F 48.18 °F 29.62 in SSW 1 mph 4 mph 38% 0 in WeatherCatV3.04B91 W/m2
13:09 76 °F 47.1 °F 29.62 in Calm   4 mph 36% 0 in WeatherCatV3.04B91 W/m2
13:14 76.1 °F 46.44 °F 29.62 in SSW 1 mph 4 mph 35% 0 in WeatherCatV3.04B91 W/m2
13:19 76.5 °F 46.02 °F 29.62 in SW 1 mph 6 mph 34% 0 in WeatherCatV3.04B91 W/m2
13:24 76.8 °F 45.5 °F 29.62 in SW 2 mph 3 mph 33% 0 in WeatherCatV3.04B91 W/m2
13:29 77.4 °F 41.72 °F 29.62 in SW 7 mph 9 mph 28% 0 in WeatherCatV3.04B91 W/m2
13:34 77.6 °F 41.89 °F 29.62 in Calm   4 mph 28% 0 in WeatherCatV3.04B91 W/m2
13:39 77.7 °F 41.98 °F 29.62 in Calm   2 mph 28% 0 in WeatherCatV3.04B91 W/m2
13:44 77.9 °F 43.06 °F 29.62 in Calm   1 mph 29% 0 in WeatherCatV3.04B91 W/m2
13:49 77.6 °F 41.89 °F 29.62 in SSW 4 mph 4 mph 28% 0 in WeatherCatV3.04B91 W/m2
13:54 77.6 °F 41.89 °F 29.62 in Calm   7 mph 28% 0 in WeatherCatV3.04B91 W/m2
13:59 78.1 °F 41.38 °F 29.60 in Calm   7 mph 27% 0 in WeatherCatV3.04B91 W/m2
14:04 78.5 °F 41.72 °F 29.60 in SW 1 mph 4 mph 27% 0 in WeatherCatV3.04B91 W/m2
14:09 78.8 °F 41.97 °F 29.60 in Calm   5 mph 27% 0 in WeatherCatV3.04B91 W/m2
14:14 79 °F 40.15 °F 29.60 in Calm   6 mph 25% 0 in WeatherCatV3.04B91 W/m2
14:19 79 °F 41.17 °F 29.60 in South 2 mph 3 mph 26% 0 in WeatherCatV3.04B91 W/m2
14:24 79.2 °F 41.33 °F 29.60 in SSW 5 mph 6 mph 26% 0 in WeatherCatV3.04B91 W/m2
14:29 79.4 °F 39.44 °F 29.59 in SW 2 mph 3 mph 24% 0 in WeatherCatV3.04B91 W/m2
14:34 79.4 °F 42.48 °F 29.59 in WSW 5 mph 7 mph 27% 0 in WeatherCatV3.04B91 W/m2
14:39 79.6 °F 41.67 °F 29.59 in SW 2 mph 3 mph 26% 0 in WeatherCatV3.04B91 W/m2
14:44 79.6 °F 40.66 °F 29.59 in Calm   4 mph 25% 0 in WeatherCatV3.04B91 W/m2
14:49 79.8 °F 41.84 °F 29.59 in Calm   3 mph 26% 0 in WeatherCatV3.04B91 W/m2
14:54 79.9 °F 39.86 °F 29.59 in SSW 4 mph 5 mph 24% 0 in WeatherCatV3.04B91 W/m2
14:59 79.9 °F 40.91 °F 29.59 in WSW 4 mph 10 mph 25% 0 in WeatherCatV3.04B91 W/m2
15:04 79.8 °F 41.84 °F 29.59 in SW 2 mph 5 mph 26% 0 in WeatherCatV3.04B91 W/m2
15:09 79.6 °F 41.67 °F 29.59 in Calm   4 mph 26% 0 in WeatherCatV3.04B91 W/m2
15:14 79.8 °F 39.78 °F 29.58 in SW 2 mph 8 mph 24% 0 in WeatherCatV3.04B91 W/m2
15:19 79.6 °F 39.61 °F 29.58 in Calm   7 mph 24% 0 in WeatherCatV3.04B91 W/m2
15:24 79.6 °F 42.65 °F 29.58 in SSW 2 mph 3 mph 27% 0 in WeatherCatV3.04B91 W/m2
15:29 79.9 °F 41.93 °F 29.58 in Calm   4 mph 26% 0 in WeatherCatV3.04B91 W/m2
15:34 80.3 °F 41.25 °F 29.58 in Calm   2 mph 25% 0 in WeatherCatV3.04B91 W/m2
15:39 80.9 °F 43.76 °F 29.58 in SSW 1 mph 6 mph 27% 0 in WeatherCatV3.04B91 W/m2
15:44 81.1 °F 42.94 °F 29.57 in SW 1 mph 6 mph 26% 0 in WeatherCatV3.04B91 W/m2
15:49 81.1 °F 41.92 °F 29.57 in Calm     25% 0 in WeatherCatV3.04B91 W/m2
15:54 81.4 °F 44.18 °F 29.57 in SSW 1 mph 4 mph 27% 0 in WeatherCatV3.04B91 W/m2
15:59 81.6 °F 43.37 °F 29.57 in Calm   7 mph 26% 0 in WeatherCatV3.04B91 W/m2
16:04 81.1 °F 42.94 °F 29.57 in Calm   2 mph 26% 0 in WeatherCatV3.04B91 W/m2
16:09 80.1 °F 42.1 °F 29.57 in Calm     26% 0 in WeatherCatV3.04B91 W/m2
16:14 79.2 °F 42.31 °F 29.57 in Calm   3 mph 27% 0 in WeatherCatV3.04B91 W/m2
16:19 78.5 °F 42.66 °F 29.57 in Calm   3 mph 28% 0 in WeatherCatV3.04B91 W/m2
16:24 77.7 °F 43.78 °F 29.57 in Calm     30% 0 in WeatherCatV3.04B91 W/m2
16:29 77.4 °F 44.38 °F 29.55 in Calm     31% 0 in WeatherCatV3.04B91 W/m2
16:34 76.7 °F 46.97 °F 29.55 in Calm     35% 0 in WeatherCatV3.04B91 W/m2
16:39 76.1 °F 48.63 °F 29.55 in Calm   1 mph 38% 0 in WeatherCatV3.04B91 W/m2
16:44 75.6 °F 47.47 °F 29.55 in Calm   1 mph 37% 0 in WeatherCatV3.04B91 W/m2
16:49 75.3 °F 48.61 °F 29.55 in Calm     39% 0 in WeatherCatV3.04B91 W/m2
16:54 74.9 °F 48.93 °F 29.55 in SW 1 mph 4 mph 40% 0 in WeatherCatV3.04B91 W/m2
16:59 74.7 °F 48.08 °F 29.56 in Calm   3 mph 39% 0 in WeatherCatV3.04B91 W/m2
17:04 74.6 °F 48.66 °F 29.56 in SSW 2 mph 4 mph 40% 0 in WeatherCatV3.04B91 W/m2
17:09 74.4 °F 49.15 °F 29.56 in SSW 2 mph 6 mph 41% 0 in WeatherCatV3.04B91 W/m2
17:14 74.4 °F 49.79 °F 29.51 in Calm   10 mph 42% 0 in WeatherCatV3.04B91 W/m2
17:19 74.2 °F 49.61 °F 29.51 in South 2 mph 6 mph 42% 0 in WeatherCatV3.04B91 W/m2
17:24 74 °F 45.34 °F 29.51 in Calm   2 mph 36% 0 in WeatherCatV3.04B91 W/m2
17:29 74 °F 49.43 °F 29.53 in SSW 1 mph 4 mph 42% 0 in WeatherCatV3.04B91 W/m2
17:34 73.9 °F 49.98 °F 29.53 in Calm   3 mph 43% 0 in WeatherCatV3.04B91 W/m2
17:39 73.5 °F 50.23 °F 29.53 in Calm   1 mph 44% 0 in WeatherCatV3.04B91 W/m2
17:44 73.3 °F 51.25 °F 29.53 in Calm   3 mph 46% 0 in WeatherCatV3.04B91 W/m2
17:49 73 °F 50.98 °F 29.53 in SW 1 mph 4 mph 46% 0 in WeatherCatV3.04B91 W/m2
17:54 72.7 °F 51.29 °F 29.53 in Calm   3 mph 47% 0 in WeatherCatV3.04B91 W/m2
17:59 72.5 °F 51.11 °F 29.54 in Calm     47% 0 in WeatherCatV3.04B91 W/m2
18:04 72.3 °F 51.5 °F 29.54 in Calm   3 mph 48% 0 in WeatherCatV3.04B91 W/m2
18:09 72.1 °F 51.31 °F 29.54 in Calm   1 mph 48% 0 in WeatherCatV3.04B91 W/m2
18:14 72.1 °F 51.31 °F 29.56 in Calm     48% 0 in WeatherCatV3.04B91 W/m2
18:19 72 °F 51.22 °F 29.56 in Calm     48% 0 in WeatherCatV3.04B91 W/m2
18:24 71.8 °F 51.6 °F 29.56 in Calm     49% 0 in WeatherCatV3.04B91 W/m2
18:29 71.6 °F 51.41 °F 29.56 in Calm     49% 0 in WeatherCatV3.04B91 W/m2
18:34 71.5 °F 51.87 °F 29.56 in Calm     50% 0 in WeatherCatV3.04B91 W/m2
18:39 71.3 °F 51.14 °F 29.56 in Calm     49% 0 in WeatherCatV3.04B91 W/m2
18:44 71.1 °F 51.5 °F 29.55 in Calm     50% 0 in WeatherCatV3.04B91 W/m2
18:49 70.9 °F 51.86 °F 29.55 in Calm   2 mph 51% 0 in WeatherCatV3.04B91 W/m2
18:54 71.3 °F 47.63 °F 29.55 in Calm   2 mph 43% 0 in WeatherCatV3.04B91 W/m2
18:59 71.6 °F 47.9 °F 29.56 in Calm     43% 0 in WeatherCatV3.04B91 W/m2
19:04 71.6 °F 49.12 °F 29.56 in SSE 3 mph 7 mph 45% 0 in WeatherCatV3.04B91 W/m2
19:09 71.5 °F 48.43 °F 29.56 in SSW 1 mph 13 mph 44% 0 in WeatherCatV3.04B91 W/m2
19:14 71.3 °F 45.72 °F 29.56 in SSW 2 mph 7 mph 40% 0 in WeatherCatV3.04B91 W/m2
19:19 70.9 °F 46.01 °F 29.56 in SW 1 mph 9 mph 41% 0 in WeatherCatV3.04B91 W/m2
19:24 70.8 °F 46.56 °F 29.56 in SW 5 mph 7 mph 42% 0 in WeatherCatV3.04B91 W/m2
19:29 70.6 °F 45.74 °F 29.55 in Calm   5 mph 41% 0 in WeatherCatV3.04B91 W/m2
19:34 70.3 °F 45.47 °F 29.55 in Calm   3 mph 41% 0 in WeatherCatV3.04B91 W/m2
19:39 69.9 °F 44.47 °F 29.55 in Calm   1 mph 40% 0 in WeatherCatV3.04B91 W/m2
19:44 69.8 °F 43.71 °F 29.54 in Calm   4 mph 39% 0 in WeatherCatV3.04B91 W/m2
19:49 69.6 °F 43.54 °F 29.54 in Calm     39% 0 in WeatherCatV3.04B91 W/m2
19:54 69.4 °F 44.67 °F 29.54 in Calm   6 mph 41% 0 in WeatherCatV3.04B91 W/m2
19:59 69.3 °F 44.58 °F 29.58 in WSW 4 mph 5 mph 41% 0 in WeatherCatV3.04B91 W/m2
20:04 68.8 °F 45.38 °F 29.58 in Calm   3 mph 43% 0 in WeatherCatV3.04B91 W/m2
20:09 68.3 °F 46.13 °F 29.58 in Calm   2 mph 45% 0 in WeatherCatV3.04B91 W/m2
20:14 67.8 °F 45.68 °F 29.56 in Calm   6 mph 45% 0 in WeatherCatV3.04B91 W/m2
20:19 67.4 °F 45.31 °F 29.56 in SW 6 mph 6 mph 45% 0 in WeatherCatV3.04B91 W/m2
20:24 67.4 °F 45.89 °F 29.56 in Calm   2 mph 46% 0 in WeatherCatV3.04B91 W/m2
20:29 67.1 °F 46.74 °F 29.58 in SW 2 mph 3 mph 48% 0 in WeatherCatV3.04B91 W/m2
20:34 66.9 °F 47.11 °F 29.58 in Calm   3 mph 49% 0 in WeatherCatV3.04B91 W/m2
20:39 66.6 °F 46.29 °F 29.58 in Calm   5 mph 48% 0 in WeatherCatV3.04B91 W/m2
20:44 66.4 °F 45.55 °F 29.59 in Calm   1 mph 47% 0 in WeatherCatV3.04B91 W/m2
20:49 66.4 °F 46.11 °F 29.59 in Calm     48% 0 in WeatherCatV3.04B91 W/m2
20:54 66.3 °F 45.46 °F 29.59 in Calm   4 mph 47% 0 in WeatherCatV3.04B91 W/m2
20:59 66.3 °F 45.46 °F 29.59 in Calm     47% 0 in WeatherCatV3.04B91 W/m2
21:04 66.1 °F 45.83 °F 29.59 in Calm     48% 0 in WeatherCatV3.04B91 W/m2
21:09 66 °F 45.74 °F 29.59 in Calm     48% 0 in WeatherCatV3.04B91 W/m2
21:14 65.8 °F 46.1 °F 29.61 in Calm     49% 0 in WeatherCatV3.04B91 W/m2
21:19 65.6 °F 45.37 °F 29.61 in Calm   3 mph 48% 0 in WeatherCatV3.04B91 W/m2
21:24 65.5 °F 45.83 °F 29.61 in Calm     49% 0 in WeatherCatV3.04B91 W/m2
21:29 65.3 °F 46.18 °F 29.62 in Calm     50% 0 in WeatherCatV3.04B91 W/m2
21:34 65 °F 46.42 °F 29.62 in Calm     51% 0 in WeatherCatV3.04B91 W/m2
21:39 64.8 °F 46.75 °F 29.62 in Calm     52% 0 in WeatherCatV3.04B91 W/m2
21:44 64.5 °F 47.48 °F 29.64 in Calm     54% 0 in WeatherCatV3.04B91 W/m2
21:49 64.2 °F 47.2 °F 29.64 in Calm     54% 0 in WeatherCatV3.04B91 W/m2
21:54 64 °F 47.5 °F 29.64 in Calm     55% 0 in WeatherCatV3.04B91 W/m2
21:59 63.9 °F 47.41 °F 29.64 in Calm     55% 0 in WeatherCatV3.04B91 W/m2
22:04 63.7 °F 47.7 °F 29.64 in Calm     56% 0 in WeatherCatV3.04B91 W/m2
22:09 63.7 °F 47.7 °F 29.64 in Calm   1 mph 56% 0 in WeatherCatV3.04B91 W/m2
22:14 63.5 °F 47.52 °F 29.63 in Calm     56% 0 in WeatherCatV3.04B91 W/m2
22:19 63.5 °F 47.52 °F 29.63 in Calm     56% 0 in WeatherCatV3.04B91 W/m2
22:24 63.4 °F 47.9 °F 29.63 in Calm     57% 0 in WeatherCatV3.04B91 W/m2
22:29 63.2 °F 47.71 °F 29.63 in Calm     57% 0 in WeatherCatV3.04B91 W/m2
22:34 63.1 °F 47.61 °F 29.63 in Calm     57% 0 in WeatherCatV3.04B91 W/m2
22:39 62.9 °F 47.89 °F 29.63 in Calm     58% 0 in WeatherCatV3.04B91 W/m2
22:44 62.7 °F 47.7 °F 29.64 in Calm     58% 0 in WeatherCatV3.04B91 W/m2
22:49 62.6 °F 48.07 °F 29.64 in Calm     59% 0 in WeatherCatV3.04B91 W/m2
22:54 62.6 °F 48.07 °F 29.64 in Calm     59% 0 in WeatherCatV3.04B91 W/m2
22:59 62.6 °F 48.07 °F 29.65 in Calm     59% 0 in WeatherCatV3.04B91 W/m2
23:04 62.7 °F 48.16 °F 29.65 in Calm     59% 0 in WeatherCatV3.04B91 W/m2
23:09 62.7 °F 48.16 °F 29.65 in Calm     59% 0 in WeatherCatV3.04B91 W/m2
23:14 62.7 °F 48.16 °F 29.65 in Calm     59% 0 in WeatherCatV3.04B91 W/m2
23:19 62.7 °F 49.49 °F 29.65 in Calm     62% 0 in WeatherCatV3.04B91 W/m2
23:24 62.6 °F 49.82 °F 29.65 in Calm     63% 0 in WeatherCatV3.04B91 W/m2
23:29 62.4 °F 50.06 °F 29.65 in Calm     64% 0 in WeatherCatV3.04B91 W/m2
23:34 62.1 °F 50.19 °F 29.65 in Calm     65% 0 in WeatherCatV3.04B91 W/m2
23:39 61.8 °F 50.32 °F 29.65 in Calm     66% 0 in WeatherCatV3.04B91 W/m2
23:44 61.6 °F 50.53 °F 29.65 in Calm     67% 0 in WeatherCatV3.04B91 W/m2
23:49 61.3 °F 50.64 °F 29.65 in Calm     68% 0 in WeatherCatV3.04B91 W/m2
23:54 61.3 °F 51.04 °F 29.65 in Calm     69% 0 in WeatherCatV3.04B91 W/m2
23:59 61 °F 51.14 °F 29.65 in Calm     70% 0 in WeatherCatV3.04B91 W/m2
Bellevue, Nebraska, USA
Compliments of Weather Underground - 3.25 mb